,,,PA_Meas_PMT16A,,PR_Meas_QMR101_102,,RH_Meas_QMH101,,SR_Meas_QMS101,,TA_Meas_QMH101,,GenWind,,GenWind,
date,time,status,PA,status,PR,status,RH,status,SR,status,TA,status,DirAvg,status,SpdAvg,
2009-01-30, 00:00:04,VALID,1009.15,VALID,0,VALID,95.6041,VALID,0.105969,VALID,22.387,VALID,69,VALID,0.0386719,
2009-01-30, 00:01:04,VALID,1009.15,VALID,0,VALID,95.6117,VALID,0,VALID,22.4082,VALID,69,VALID,0,
2009-01-30, 00:02:04,VALID,1009.13,VALID,0,VALID,95.5964,VALID,0,VALID,22.4082,VALID,63,VALID,0,
2009-01-30, 00:03:04,VALID,1009.12,VALID,0,VALID,95.5964,VALID,0,VALID,22.387,VALID,58,VALID,0,
2009-01-30, 00:04:04,VALID,1009.11,VALID,0,VALID,95.6041,VALID,0,VALID,22.4082,VALID,103,VALID,0.405859,
2009-01-30, 00:05:04,VALID,1009.12,VALID,0,VALID,95.5888,VALID,0,VALID,22.4082,VALID,80,VALID,0,
2009-01-30, 00:06:04,VALID,1009.11,VALID,0,VALID,95.5812,VALID,0,VALID,22.4082,VALID,77,VALID,0.394141,
2009-01-30, 00:07:04,VALID,1009.11,VALID,0,VALID,95.6041,VALID,0,VALID,22.4277,VALID,27,VALID,0.422266,
2009-01-30, 00:08:04,VALID,1009.1,VALID,0,VALID,95.5812,VALID,0,VALID,22.4277,VALID,24,VALID,0,
2009-01-30, 00:09:04,VALID,1009.11,VALID,0,VALID,95.5888,VALID,0,VALID,22.4277,VALID,22,VALID,0,
2009-01-30, 00:10:04,VALID,1009.13,VALID,0,VALID,95.5888,VALID,0,VALID,22.4472,VALID,22,VALID,0.00351562,
2009-01-30, 00:11:04,VALID,1009.1,VALID,0,VALID,95.6041,VALID,0,VALID,22.4472,VALID,22,VALID,0.00429688,
2009-01-30, 00:12:04,VALID,1009.08,VALID,0,VALID,95.5736,VALID,0,VALID,22.426,VALID,62,VALID,0.441797,
2009-01-30, 00:13:04,VALID,1009.07,VALID,0,VALID,95.5888,VALID,0,VALID,22.4472,VALID,38,VALID,0.112109,
2009-01-30, 00:14:04,VALID,1009.07,VALID,0,VALID,95.5964,VALID,0,VALID,22.4472,VALID,17,VALID,0.105469,
2009-01-30, 00:15:04,VALID,1009.05,VALID,0,VALID,95.6041,VALID,0,VALID,22.4472,VALID,17,VALID,0,
2009-01-30, 00:16:04,VALID,1009.03,VALID,0,VALID,95.5507,VALID,0,VALID,22.4667,VALID,17,VALID,0,
2009-01-30, 00:17:04,VALID,1009.02,VALID,0,VALID,95.5812,VALID,0,VALID,22.4455,VALID,15,VALID,0,
2009-01-30, 00:18:04,VALID,1008.98,VALID,0,VALID,95.5812,VALID,0,VALID,22.4667,VALID,355,VALID,0,
2009-01-30, 00:19:04,VALID,1008.98,VALID,0,VALID,95.5659,VALID,0.105969,VALID,22.4455,VALID,351,VALID,0,
2009-01-30, 00:20:04,VALID,1008.94,VALID,0,VALID,95.5659,VALID,0,VALID,22.4667,VALID,339,VALID,0,
2009-01-30, 00:21:04,VALID,1008.91,VALID,0,VALID,95.5431,VALID,0,VALID,22.4878,VALID,298,VALID,0,
2009-01-30, 00:22:04,VALID,1008.88,VALID,0,VALID,95.5583,VALID,0,VALID,22.4667,VALID,299,VALID,0,
2009-01-30, 00:23:04,VALID,1008.85,VALID,0,VALID,95.5812,VALID,0,VALID,22.4472,VALID,319,VALID,0,
2009-01-30, 00:24:04,VALID,1008.86,VALID,0,VALID,95.5812,VALID,0,VALID,22.4667,VALID,319,VALID,0,
2009-01-30, 00:25:04,VALID,1008.86,VALID,0,VALID,95.5659,VALID,0,VALID,22.4667,VALID,319,VALID,0,
2009-01-30, 00:26:04,VALID,1008.84,VALID,0,VALID,95.5659,VALID,0,VALID,22.4472,VALID,36,VALID,0.184766,
2009-01-30, 00:27:04,VALID,1008.86,VALID,0,VALID,95.5431,VALID,0,VALID,22.426,VALID,45,VALID,0.00195313,
2009-01-30, 00:28:04,VALID,1008.88,VALID,0,VALID,95.5583,VALID,0,VALID,22.4277,VALID,45,VALID,0,
2009-01-30, 00:29:04,VALID,1008.88,VALID,0,VALID,95.5583,VALID,0,VALID,22.4472,VALID,45,VALID,0,
2009-01-30, 00:30:04,VALID,1008.87,VALID,0,VALID,95.5583,VALID,0,VALID,22.4277,VALID,16,VALID,0.0894531,
2009-01-30, 00:31:04,VALID,1008.93,VALID,0,VALID,95.5736,VALID,0,VALID,22.4277,VALID,16,VALID,0.0308594,
2009-01-30, 00:32:04,VALID,1008.91,VALID,0,VALID,95.5659,VALID,0,VALID,22.4277,VALID,16,VALID,0,
2009-01-30, 00:33:04,VALID,1008.89,VALID,0,VALID,95.5507,VALID,0,VALID,22.4277,VALID,16,VALID,0,
2009-01-30, 00:34:04,VALID,1008.89,VALID,0,VALID,95.5659,VALID,0,VALID,22.4277,VALID,16,VALID,0,
2009-01-30, 00:35:04,VALID,1008.92,VALID,0,VALID,95.5659,VALID,0,VALID,22.4472,VALID,16,VALID,0,
2009-01-30, 00:36:04,VALID,1008.89,VALID,0,VALID,95.5354,VALID,0,VALID,22.4277,VALID,16,VALID,0,
2009-01-30, 00:37:04,VALID,1008.91,VALID,0,VALID,95.5431,VALID,0,VALID,22.4277,VALID,16,VALID,0,
2009-01-30, 00:38:04,VALID,1008.91,VALID,0,VALID,95.5507,VALID,0,VALID,22.4277,VALID,16,VALID,0,
2009-01-30, 00:39:04,VALID,1008.89,VALID,0,VALID,95.5507,VALID,0,VALID,22.4294,VALID,16,VALID,0,
2009-01-30, 00:40:04,VALID,1008.9,VALID,0,VALID,95.5583,VALID,0,VALID,22.4277,VALID,16,VALID,0,
2009-01-30, 00:41:04,VALID,1008.9,VALID,0,VALID,95.5583,VALID,0,VALID,22.4082,VALID,12,VALID,0,
2009-01-30, 00:42:04,VALID,1008.88,VALID,0,VALID,95.5507,VALID,0,VALID,22.4082,VALID,12,VALID,0,
2009-01-30, 00:43:04,VALID,1008.89,VALID,0,VALID,95.5583,VALID,0,VALID,22.4277,VALID,12,VALID,0,
2009-01-30, 00:44:04,VALID,1008.89,VALID,0,VALID,95.5278,VALID,0,VALID,22.4472,VALID,340,VALID,0,
2009-01-30, 00:45:04,VALID,1008.89,VALID,0,VALID,95.5507,VALID,0,VALID,22.4065,VALID,339,VALID,0,
2009-01-30, 00:46:04,VALID,1008.88,VALID,0,VALID,95.5507,VALID,0,VALID,22.4065,VALID,331,VALID,0,
2009-01-30, 00:47:04,VALID,1008.88,VALID,0,VALID,95.5354,VALID,0,VALID,22.4472,VALID,323,VALID,0,
2009-01-30, 00:48:04,VALID,1008.87,VALID,0,VALID,95.5278,VALID,0,VALID,22.4277,VALID,318,VALID,0,
2009-01-30, 00:49:04,VALID,1008.87,VALID,0,VALID,95.5354,VALID,0,VALID,22.4277,VALID,318,VALID,0,
2009-01-30, 00:50:04,VALID,1008.87,VALID,0,VALID,95.5507,VALID,0,VALID,22.4277,VALID,318,VALID,0,
2009-01-30, 00:51:04,VALID,1008.89,VALID,0,VALID,95.5278,VALID,0,VALID,22.4277,VALID,318,VALID,0,
2009-01-30, 00:52:04,VALID,1008.86,VALID,0,VALID,95.5126,VALID,0,VALID,22.4472,VALID,318,VALID,0,
2009-01-30, 00:53:04,VALID,1008.85,VALID,0,VALID,95.5431,VALID,0,VALID,22.4065,VALID,318,VALID,0,
2009-01-30, 00:54:04,VALID,1008.84,VALID,0,VALID,95.5278,VALID,0,VALID,22.426,VALID,318,VALID,0,
2009-01-30, 00:55:04,VALID,1008.82,VALID,0,VALID,95.5354,VALID,0,VALID,22.4082,VALID,318,VALID,0,
2009-01-30, 00:56:04,VALID,1008.86,VALID,0,VALID,95.5202,VALID,0,VALID,22.4277,VALID,318,VALID,0,
2009-01-30, 00:57:04,VALID,1008.83,VALID,0,VALID,95.5202,VALID,0,VALID,22.4277,VALID,318,VALID,0,
2009-01-30, 00:58:04,VALID,1008.85,VALID,0,VALID,95.5278,VALID,0.105969,VALID,22.4065,VALID,318,VALID,0,
2009-01-30, 00:59:04,VALID,1008.87,VALID,0,VALID,95.5278,VALID,0,VALID,22.4277,VALID,318,VALID,0,
2009-01-30, 01:00:04,VALID,1008.85,VALID,0,VALID,95.5049,VALID,0,VALID,22.4277,VALID,318,VALID,0,
2009-01-30, 01:01:04,VALID,1008.9,VALID,0,VALID,95.5278,VALID,0,VALID,22.4277,VALID,318,VALID,0,
2009-01-30, 01:02:04,VALID,1008.9,VALID,0,VALID,95.5202,VALID,0,VALID,22.4082,VALID,318,VALID,0,
2009-01-30, 01:03:04,VALID,1008.88,VALID,0,VALID,95.5202,VALID,0,VALID,22.4277,VALID,318,VALID,0,
2009-01-30, 01:04:04,VALID,1008.9,VALID,0,VALID,95.5049,VALID,0,VALID,22.4082,VALID,318,VALID,0,
2009-01-30, 01:05:04,VALID,1008.91,VALID,0,VALID,95.5126,VALID,0,VALID,22.4277,VALID,318,VALID,0,
2009-01-30, 01:06:04,VALID,1008.89,VALID,0,VALID,95.5126,VALID,0,VALID,22.4277,VALID,318,VALID,0,
2009-01-30, 01:07:04,VALID,1008.87,VALID,0,VALID,95.5126,VALID,0,VALID,22.4082,VALID,318,VALID,0,
2009-01-30, 01:08:04,VALID,1008.87,VALID,0,VALID,95.5202,VALID,0,VALID,22.4082,VALID,318,VALID,0,
2009-01-30, 01:09:04,VALID,1008.87,VALID,0,VALID,95.5278,VALID,0,VALID,22.4082,VALID,318,VALID,0,
2009-01-30, 01:10:04,VALID,1008.86,VALID,0,VALID,95.5049,VALID,0,VALID,22.4277,VALID,318,VALID,0,
2009-01-30, 01:11:04,VALID,1008.88,VALID,0,VALID,95.5202,VALID,0,VALID,22.4082,VALID,318,VALID,0,
2009-01-30, 01:12:04,VALID,1008.87,VALID,0,VALID,95.5278,VALID,0,VALID,22.4472,VALID,318,VALID,0,
2009-01-30, 01:13:04,VALID,1008.86,VALID,0,VALID,95.4973,VALID,0,VALID,22.4472,VALID,318,VALID,0,
2009-01-30, 01:14:04,VALID,1008.88,VALID,0,VALID,95.4973,VALID,0,VALID,22.4472,VALID,318,VALID,0,
2009-01-30, 01:15:04,VALID,1008.86,VALID,0,VALID,95.5049,VALID,0,VALID,22.4861,VALID,318,VALID,0,
2009-01-30, 01:16:04,VALID,1008.87,VALID,0,VALID,95.4897,VALID,0,VALID,22.4455,VALID,318,VALID,0,
2009-01-30, 01:17:04,VALID,1008.84,VALID,0,VALID,95.4821,VALID,0,VALID,22.4667,VALID,318,VALID,0,
2009-01-30, 01:18:04,VALID,1008.88,VALID,0,VALID,95.4973,VALID,0,VALID,22.4667,VALID,318,VALID,0,
2009-01-30, 01:19:04,VALID,1008.86,VALID,0,VALID,95.4973,VALID,0,VALID,22.4667,VALID,318,VALID,0,
2009-01-30, 01:20:04,VALID,1008.87,VALID,0,VALID,95.4973,VALID,0,VALID,22.4667,VALID,318,VALID,0,
2009-01-30, 01:21:04,VALID,1008.89,VALID,0,VALID,95.4821,VALID,0,VALID,22.4667,VALID,318,VALID,0,
2009-01-30, 01:22:04,VALID,1008.9,VALID,0,VALID,95.4897,VALID,0,VALID,22.4472,VALID,318,VALID,0,
2009-01-30, 01:23:04,VALID,1008.91,VALID,0,VALID,95.4821,VALID,0,VALID,22.4065,VALID,318,VALID,0,
2009-01-30, 01:24:04,VALID,1008.91,VALID,0,VALID,95.4897,VALID,0,VALID,22.4082,VALID,318,VALID,0,
2009-01-30, 01:25:04,VALID,1008.91,VALID,0,VALID,95.4897,VALID,0,VALID,22.4082,VALID,318,VALID,0,
2009-01-30, 01:26:04,VALID,1008.9,VALID,0,VALID,95.4973,VALID,0,VALID,22.4082,VALID,318,VALID,0,
2009-01-30, 01:27:04,VALID,1008.89,VALID,0,VALID,95.4897,VALID,0.105969,VALID,22.387,VALID,318,VALID,0,
2009-01-30, 01:28:04,VALID,1008.9,VALID,0,VALID,95.4897,VALID,0,VALID,22.387,VALID,318,VALID,0,
2009-01-30, 01:29:04,VALID,1008.87,VALID,0,VALID,95.4973,VALID,0,VALID,22.4082,VALID,318,VALID,0,
2009-01-30, 01:30:04,VALID,1008.87,VALID,0,VALID,95.4897,VALID,0,VALID,22.387,VALID,318,VALID,0,
2009-01-30, 01:31:04,VALID,1008.85,VALID,0,VALID,95.5049,VALID,0,VALID,22.3887,VALID,318,VALID,0,
2009-01-30, 01:32:04,VALID,1008.84,VALID,0,VALID,95.4821,VALID,0.105969,VALID,22.387,VALID,318,VALID,0,
2009-01-30, 01:33:04,VALID,1008.83,VALID,0,VALID,95.5049,VALID,0,VALID,22.4082,VALID,318,VALID,0,
2009-01-30, 01:34:04,VALID,1008.83,VALID,0,VALID,95.4821,VALID,0,VALID,22.4082,VALID,318,VALID,0,
2009-01-30, 01:35:04,VALID,1008.79,VALID,0,VALID,95.4897,VALID,0,VALID,22.3887,VALID,318,VALID,0,
2009-01-30, 01:36:04,VALID,1008.81,VALID,0,VALID,95.5126,VALID,0,VALID,22.4082,VALID,318,VALID,0,
2009-01-30, 01:37:04,VALID,1008.78,VALID,0,VALID,95.4821,VALID,0,VALID,22.4082,VALID,318,VALID,0,
2009-01-30, 01:38:04,VALID,1008.77,VALID,0,VALID,95.4973,VALID,0,VALID,22.3676,VALID,318,VALID,0,
2009-01-30, 01:39:04,VALID,1008.76,VALID,0,VALID,95.4973,VALID,0,VALID,22.3887,VALID,318,VALID,0,
2009-01-30, 01:40:04,VALID,1008.77,VALID,0,VALID,95.4821,VALID,0,VALID,22.3887,VALID,318,VALID,0,
2009-01-30, 01:41:04,VALID,1008.76,VALID,0,VALID,95.4897,VALID,0,VALID,22.4082,VALID,318,VALID,0,
2009-01-30, 01:42:04,VALID,1008.73,VALID,0,VALID,95.4744,VALID,0,VALID,22.4082,VALID,318,VALID,0,
2009-01-30, 01:43:04,VALID,1008.69,VALID,0,VALID,95.4668,VALID,0,VALID,22.4277,VALID,318,VALID,0,
2009-01-30, 01:44:04,VALID,1008.72,VALID,0,VALID,95.4668,VALID,0,VALID,22.4082,VALID,318,VALID,0,
2009-01-30, 01:45:04,VALID,1008.71,VALID,0,VALID,95.4821,VALID,0,VALID,22.4082,VALID,318,VALID,0,
2009-01-30, 01:46:04,VALID,1008.68,VALID,0,VALID,95.4744,VALID,0,VALID,22.4082,VALID,318,VALID,0,
2009-01-30, 01:47:04,VALID,1008.63,VALID,0,VALID,95.4668,VALID,0,VALID,22.4082,VALID,318,VALID,0,
2009-01-30, 01:48:04,VALID,1008.62,VALID,0,VALID,95.4668,VALID,0,VALID,22.3887,VALID,318,VALID,0,
2009-01-30, 01:49:04,VALID,1008.63,VALID,0,VALID,95.4744,VALID,0,VALID,22.3887,VALID,318,VALID,0,
2009-01-30, 01:50:04,VALID,1008.64,VALID,0,VALID,95.4821,VALID,0,VALID,22.3887,VALID,318,VALID,0,
2009-01-30, 01:51:04,VALID,1008.61,VALID,0,VALID,95.4821,VALID,0,VALID,22.387,VALID,302,VALID,0,
2009-01-30, 01:52:04,VALID,1008.63,VALID,0,VALID,95.4821,VALID,0.105969,VALID,22.4082,VALID,218,VALID,0,
2009-01-30, 01:53:04,VALID,1008.61,VALID,0,VALID,95.4744,VALID,0,VALID,22.3887,VALID,218,VALID,0,
2009-01-30, 01:54:04,VALID,1008.63,VALID,0,VALID,95.4744,VALID,0,VALID,22.3481,VALID,218,VALID,0,
2009-01-30, 01:55:04,VALID,1008.63,VALID,0,VALID,95.4821,VALID,0,VALID,22.3481,VALID,218,VALID,0,
2009-01-30, 01:56:04,VALID,1008.64,VALID,0,VALID,95.4744,VALID,0,VALID,22.3498,VALID,218,VALID,0,
2009-01-30, 01:57:04,VALID,1008.65,VALID,0,VALID,95.4821,VALID,0,VALID,22.3498,VALID,218,VALID,0,
2009-01-30, 01:58:04,VALID,1008.63,VALID,0,VALID,95.4668,VALID,0,VALID,22.3498,VALID,218,VALID,0,
2009-01-30, 01:59:04,VALID,1008.61,VALID,0,VALID,95.4897,VALID,0,VALID,22.3904,VALID,218,VALID,0,
2009-01-30, 02:00:04,VALID,1008.61,VALID,0,VALID,95.4897,VALID,0,VALID,22.3693,VALID,191,VALID,0,
2009-01-30, 02:01:04,VALID,1008.62,VALID,0,VALID,95.4744,VALID,0,VALID,22.3693,VALID,177,VALID,0,
2009-01-30, 02:02:04,VALID,1008.62,VALID,0,VALID,95.4821,VALID,0,VALID,22.371,VALID,177,VALID,0,
2009-01-30, 02:03:04,VALID,1008.61,VALID,0,VALID,95.4744,VALID,0,VALID,22.3498,VALID,177,VALID,0,
2009-01-30, 02:04:04,VALID,1008.59,VALID,0,VALID,95.4744,VALID,0,VALID,22.3693,VALID,177,VALID,0,
2009-01-30, 02:05:04,VALID,1008.6,VALID,0,VALID,95.4897,VALID,0,VALID,22.3498,VALID,177,VALID,0,
2009-01-30, 02:06:04,VALID,1008.6,VALID,0,VALID,95.4668,VALID,0,VALID,22.3887,VALID,177,VALID,0,
2009-01-30, 02:07:04,VALID,1008.59,VALID,0,VALID,95.4744,VALID,0,VALID,22.3693,VALID,177,VALID,0,
2009-01-30, 02:08:04,VALID,1008.58,VALID,0,VALID,95.4668,VALID,0,VALID,22.3498,VALID,177,VALID,0,
2009-01-30, 02:09:04,VALID,1008.57,VALID,0,VALID,95.4668,VALID,0,VALID,22.3693,VALID,177,VALID,0,
2009-01-30, 02:10:04,VALID,1008.61,VALID,0,VALID,95.4744,VALID,0,VALID,22.3693,VALID,177,VALID,0,
2009-01-30, 02:11:04,VALID,1008.58,VALID,0,VALID,95.4744,VALID,0,VALID,22.3693,VALID,177,VALID,0,
2009-01-30, 02:12:04,VALID,1008.57,VALID,0,VALID,95.4592,VALID,0,VALID,22.3481,VALID,177,VALID,0,
2009-01-30, 02:13:04,VALID,1008.58,VALID,0,VALID,95.4744,VALID,0,VALID,22.3693,VALID,177,VALID,0,
2009-01-30, 02:14:04,VALID,1008.57,VALID,0,VALID,95.4592,VALID,0,VALID,22.3693,VALID,177,VALID,0,
2009-01-30, 02:15:04,VALID,1008.57,VALID,0,VALID,95.4668,VALID,0,VALID,22.3498,VALID,177,VALID,0,
2009-01-30, 02:16:04,VALID,1008.55,VALID,0,VALID,95.4592,VALID,0,VALID,22.3498,VALID,177,VALID,0,
2009-01-30, 02:17:04,VALID,1008.54,VALID,0,VALID,95.4744,VALID,0,VALID,22.3515,VALID,177,VALID,0,
2009-01-30, 02:18:04,VALID,1008.54,VALID,0,VALID,95.4668,VALID,0,VALID,22.3303,VALID,177,VALID,0,
2009-01-30, 02:19:04,VALID,1008.54,VALID,0,VALID,95.4744,VALID,0,VALID,22.3108,VALID,177,VALID,0,
2009-01-30, 02:20:04,VALID,1008.56,VALID,0,VALID,95.4821,VALID,0,VALID,22.3303,VALID,177,VALID,0,
2009-01-30, 02:21:04,VALID,1008.53,VALID,0,VALID,95.4516,VALID,0,VALID,22.3498,VALID,177,VALID,0,
2009-01-30, 02:22:04,VALID,1008.54,VALID,0,VALID,95.4668,VALID,0,VALID,22.3498,VALID,177,VALID,0,
2009-01-30, 02:23:04,VALID,1008.55,VALID,0,VALID,95.4592,VALID,0,VALID,22.3498,VALID,177,VALID,0,
2009-01-30, 02:24:04,VALID,1008.53,VALID,0,VALID,95.4668,VALID,0,VALID,22.3498,VALID,177,VALID,0,
2009-01-30, 02:25:04,VALID,1008.55,VALID,0,VALID,95.4592,VALID,0,VALID,22.3498,VALID,177,VALID,0,
2009-01-30, 02:26:04,VALID,1008.55,VALID,0,VALID,95.4516,VALID,0,VALID,22.3904,VALID,177,VALID,0,
2009-01-30, 02:27:04,VALID,1008.51,VALID,0,VALID,95.4516,VALID,0,VALID,22.3693,VALID,177,VALID,0,
2009-01-30, 02:28:04,VALID,1008.51,VALID,0,VALID,95.4516,VALID,0,VALID,22.3693,VALID,177,VALID,0,
2009-01-30, 02:29:04,VALID,1008.54,VALID,0,VALID,95.4439,VALID,0,VALID,22.3693,VALID,177,VALID,0,
2009-01-30, 02:30:04,VALID,1008.58,VALID,0,VALID,95.4516,VALID,0,VALID,22.3904,VALID,177,VALID,0,
2009-01-30, 02:31:04,VALID,1008.56,VALID,0,VALID,95.4516,VALID,0,VALID,22.3693,VALID,177,VALID,0,
2009-01-30, 02:32:04,VALID,1008.55,VALID,0,VALID,95.4516,VALID,0,VALID,22.3693,VALID,177,VALID,0,
2009-01-30, 02:33:04,VALID,1008.56,VALID,0,VALID,95.4363,VALID,0,VALID,22.3887,VALID,149,VALID,0,
2009-01-30, 02:34:04,VALID,1008.56,VALID,0,VALID,95.4363,VALID,0,VALID,22.4082,VALID,149,VALID,0,
2009-01-30, 02:35:04,VALID,1008.59,VALID,0,VALID,95.4363,VALID,0,VALID,22.3887,VALID,149,VALID,0,
2009-01-30, 02:36:04,VALID,1008.6,VALID,0,VALID,95.4439,VALID,0,VALID,22.3887,VALID,138,VALID,0,
2009-01-30, 02:37:04,VALID,1008.58,VALID,0,VALID,95.4363,VALID,0,VALID,22.3693,VALID,138,VALID,0,
2009-01-30, 02:38:04,VALID,1008.6,VALID,0,VALID,95.4516,VALID,0,VALID,22.3887,VALID,138,VALID,0,
2009-01-30, 02:39:04,VALID,1008.6,VALID,0,VALID,95.4287,VALID,0,VALID,22.3693,VALID,138,VALID,0,
2009-01-30, 02:40:04,VALID,1008.6,VALID,0,VALID,95.4363,VALID,0,VALID,22.3887,VALID,129,VALID,0,
2009-01-30, 02:41:04,VALID,1008.62,VALID,0,VALID,95.4516,VALID,0,VALID,22.3693,VALID,138,VALID,0,
2009-01-30, 02:42:04,VALID,1008.62,VALID,0,VALID,95.4592,VALID,0,VALID,22.371,VALID,141,VALID,0.795703,
2009-01-30, 02:43:04,VALID,1008.63,VALID,0,VALID,95.4363,VALID,0,VALID,22.3303,VALID,140,VALID,0.714844,
2009-01-30, 02:44:04,VALID,1008.62,VALID,0,VALID,95.4516,VALID,0,VALID,22.3303,VALID,138,VALID,0.7,
2009-01-30, 02:45:04,VALID,1008.65,VALID,0,VALID,95.4363,VALID,0,VALID,22.3498,VALID,138,VALID,0.526953,
2009-01-30, 02:46:04,VALID,1008.67,VALID,0,VALID,95.4363,VALID,0,VALID,22.3303,VALID,138,VALID,0.147656,
2009-01-30, 02:47:04,VALID,1008.66,VALID,0,VALID,95.4363,VALID,0,VALID,22.3498,VALID,138,VALID,0.278516,
2009-01-30, 02:48:04,VALID,1008.69,VALID,0,VALID,95.4439,VALID,0,VALID,22.3303,VALID,138,VALID,0.266797,
2009-01-30, 02:49:04,VALID,1008.66,VALID,0,VALID,95.4439,VALID,0,VALID,22.3498,VALID,138,VALID,0.268359,
2009-01-30, 02:50:04,VALID,1008.66,VALID,0,VALID,95.4439,VALID,0,VALID,22.3303,VALID,138,VALID,0.274609,
2009-01-30, 02:51:04,VALID,1008.67,VALID,0,VALID,95.4287,VALID,0,VALID,22.3515,VALID,147,VALID,0.550781,
2009-01-30, 02:52:04,VALID,1008.69,VALID,0,VALID,95.4211,VALID,0,VALID,22.3303,VALID,146,VALID,0.224609,
2009-01-30, 02:53:04,VALID,1008.66,VALID,0,VALID,95.4134,VALID,0,VALID,22.3286,VALID,146,VALID,0,
2009-01-30, 02:54:04,VALID,1008.62,VALID,0,VALID,95.4287,VALID,0,VALID,22.3693,VALID,146,VALID,0,
2009-01-30, 02:55:04,VALID,1008.63,VALID,0,VALID,95.4211,VALID,0,VALID,22.3303,VALID,146,VALID,0,
2009-01-30, 02:56:04,VALID,1008.63,VALID,0,VALID,95.4363,VALID,0,VALID,22.3693,VALID,146,VALID,0,
2009-01-30, 02:57:04,VALID,1008.63,VALID,0,VALID,95.4211,VALID,0.105969,VALID,22.3498,VALID,146,VALID,0,
2009-01-30, 02:58:04,VALID,1008.61,VALID,0,VALID,95.4287,VALID,0,VALID,22.3303,VALID,151,VALID,0,
2009-01-30, 02:59:04,VALID,1008.63,VALID,0,VALID,95.4363,VALID,0,VALID,22.3498,VALID,151,VALID,0.283984,
2009-01-30, 03:00:04,VALID,1008.59,VALID,0,VALID,95.4363,VALID,0,VALID,22.3498,VALID,151,VALID,0.167578,
2009-01-30, 03:01:04,VALID,1008.6,VALID,0,VALID,95.4363,VALID,0,VALID,22.3303,VALID,151,VALID,0,
2009-01-30, 03:02:04,VALID,1008.58,VALID,0,VALID,95.4211,VALID,0,VALID,22.3303,VALID,151,VALID,0,
2009-01-30, 03:03:04,VALID,1008.56,VALID,0,VALID,95.4287,VALID,0,VALID,22.3303,VALID,151,VALID,0,
2009-01-30, 03:04:04,VALID,1008.57,VALID,0,VALID,95.4592,VALID,0,VALID,22.3693,VALID,151,VALID,0,
2009-01-30, 03:05:04,VALID,1008.52,VALID,0,VALID,95.4287,VALID,0,VALID,22.3498,VALID,151,VALID,0,
2009-01-30, 03:06:04,VALID,1008.53,VALID,0,VALID,95.4363,VALID,0,VALID,22.3498,VALID,151,VALID,0,
2009-01-30, 03:07:04,VALID,1008.56,VALID,0,VALID,95.4287,VALID,0,VALID,22.3091,VALID,151,VALID,0,
2009-01-30, 03:08:04,VALID,1008.56,VALID,0,VALID,95.4134,VALID,0,VALID,22.2897,VALID,151,VALID,0,
2009-01-30, 03:09:04,VALID,1008.55,VALID,0,VALID,95.4211,VALID,0,VALID,22.3498,VALID,151,VALID,0,
2009-01-30, 03:10:04,VALID,1008.56,VALID,0,VALID,95.4134,VALID,0,VALID,22.3303,VALID,151,VALID,0,
2009-01-30, 03:11:04,VALID,1008.59,VALID,0,VALID,95.4134,VALID,0,VALID,22.3303,VALID,151,VALID,0,
2009-01-30, 03:12:04,VALID,1008.55,VALID,0,VALID,95.4287,VALID,0.105969,VALID,22.3091,VALID,151,VALID,0,
2009-01-30, 03:13:04,VALID,1008.57,VALID,0,VALID,95.4516,VALID,0,VALID,22.3303,VALID,151,VALID,0,
2009-01-30, 03:14:04,VALID,1008.56,VALID,0,VALID,95.4058,VALID,0,VALID,22.3303,VALID,151,VALID,0,
2009-01-30, 03:15:04,VALID,1008.54,VALID,0,VALID,95.4363,VALID,0,VALID,22.3108,VALID,151,VALID,0,
2009-01-30, 03:16:04,VALID,1008.56,VALID,0,VALID,95.4058,VALID,0,VALID,22.3108,VALID,151,VALID,0,
2009-01-30, 03:17:04,VALID,1008.54,VALID,0,VALID,95.4211,VALID,0,VALID,22.3303,VALID,151,VALID,0,
2009-01-30, 03:18:04,VALID,1008.52,VALID,0,VALID,95.4134,VALID,0,VALID,22.3303,VALID,151,VALID,0,
2009-01-30, 03:19:04,VALID,1008.51,VALID,0,VALID,95.4287,VALID,0,VALID,22.3091,VALID,151,VALID,0,
2009-01-30, 03:20:04,VALID,1008.51,VALID,0,VALID,95.4134,VALID,0,VALID,22.3303,VALID,151,VALID,0,
2009-01-30, 03:21:04,VALID,1008.49,VALID,0,VALID,95.4134,VALID,0,VALID,22.3303,VALID,151,VALID,0,
2009-01-30, 03:22:04,VALID,1008.52,VALID,0,VALID,95.4211,VALID,0,VALID,22.3108,VALID,151,VALID,0,
2009-01-30, 03:23:04,VALID,1008.51,VALID,0,VALID,95.4058,VALID,0,VALID,22.3303,VALID,151,VALID,0,
2009-01-30, 03:24:04,VALID,1008.53,VALID,0,VALID,95.4287,VALID,0,VALID,22.2897,VALID,151,VALID,0,
2009-01-30, 03:25:04,VALID,1008.52,VALID,0,VALID,95.4287,VALID,0,VALID,22.3303,VALID,151,VALID,0,
2009-01-30, 03:26:04,VALID,1008.51,VALID,0,VALID,95.4134,VALID,0,VALID,22.3303,VALID,151,VALID,0,
2009-01-30, 03:27:04,VALID,1008.52,VALID,0,VALID,95.4211,VALID,0,VALID,22.3303,VALID,151,VALID,0,
2009-01-30, 03:28:04,VALID,1008.52,VALID,0,VALID,95.4134,VALID,0.105969,VALID,22.3303,VALID,151,VALID,0,
2009-01-30, 03:29:04,VALID,1008.51,VALID,0,VALID,95.4058,VALID,0,VALID,22.2897,VALID,151,VALID,0,
2009-01-30, 03:30:04,VALID,1008.5,VALID,0,VALID,95.3829,VALID,0,VALID,22.3108,VALID,151,VALID,0,
2009-01-30, 03:31:04,VALID,1008.48,VALID,0,VALID,95.4058,VALID,0,VALID,22.3108,VALID,151,VALID,0,
2009-01-30, 03:32:04,VALID,1008.48,VALID,0,VALID,95.3905,VALID,0,VALID,22.3108,VALID,151,VALID,0,
2009-01-30, 03:33:04,VALID,1008.49,VALID,0,VALID,95.0703,VALID,0,VALID,22.3108,VALID,151,VALID,0,
2009-01-30, 03:34:04,VALID,1008.51,VALID,0,VALID,95.4058,VALID,0,VALID,22.3108,VALID,151,VALID,0,
2009-01-30, 03:35:04,VALID,1008.49,VALID,0,VALID,95.4058,VALID,0,VALID,22.3303,VALID,151,VALID,0,
2009-01-30, 03:36:04,VALID,1008.51,VALID,0,VALID,95.3982,VALID,0,VALID,22.3303,VALID,151,VALID,0,
2009-01-30, 03:37:04,VALID,1008.52,VALID,0,VALID,95.3982,VALID,0,VALID,22.3303,VALID,151,VALID,0,
2009-01-30, 03:38:04,VALID,1008.52,VALID,0,VALID,95.3905,VALID,0,VALID,22.3303,VALID,151,VALID,0,
2009-01-30, 03:39:04,VALID,1008.53,VALID,0,VALID,95.3905,VALID,0,VALID,22.2897,VALID,151,VALID,0,
2009-01-30, 03:40:04,VALID,1008.55,VALID,0,VALID,95.4134,VALID,0,VALID,22.3108,VALID,151,VALID,0,
2009-01-30, 03:41:04,VALID,1008.56,VALID,0,VALID,95.3829,VALID,0,VALID,22.3303,VALID,151,VALID,0,
2009-01-30, 03:42:04,VALID,1008.57,VALID,0,VALID,95.3982,VALID,0,VALID,22.3108,VALID,151,VALID,0,
2009-01-30, 03:43:04,VALID,1008.55,VALID,0,VALID,95.3905,VALID,0,VALID,22.3108,VALID,151,VALID,0,
2009-01-30, 03:44:04,VALID,1008.56,VALID,0,VALID,95.3905,VALID,0,VALID,22.2914,VALID,151,VALID,0,
2009-01-30, 03:45:04,VALID,1008.56,VALID,0,VALID,95.3982,VALID,0,VALID,22.2507,VALID,151,VALID,0,
2009-01-30, 03:46:04,VALID,1008.59,VALID,0,VALID,95.3905,VALID,0,VALID,22.2914,VALID,151,VALID,0,
2009-01-30, 03:47:04,VALID,1008.56,VALID,0,VALID,95.4134,VALID,0,VALID,22.2719,VALID,151,VALID,0,
2009-01-30, 03:48:04,VALID,1008.57,VALID,0,VALID,95.3982,VALID,0,VALID,22.2524,VALID,151,VALID,0,
2009-01-30, 03:49:04,VALID,1008.59,VALID,0,VALID,95.4134,VALID,0,VALID,22.2719,VALID,151,VALID,0,
2009-01-30, 03:50:04,VALID,1008.57,VALID,0,VALID,95.4058,VALID,0.105969,VALID,22.3108,VALID,151,VALID,0.0167969,
2009-01-30, 03:51:04,VALID,1008.6,VALID,0,VALID,95.3753,VALID,0,VALID,22.3303,VALID,151,VALID,0.246875,
2009-01-30, 03:52:04,VALID,1008.58,VALID,0,VALID,95.3829,VALID,0,VALID,22.3303,VALID,185,VALID,0.224219,
2009-01-30, 03:53:04,VALID,1008.59,VALID,0,VALID,95.4058,VALID,0,VALID,22.3108,VALID,237,VALID,0.429688,
2009-01-30, 03:54:04,VALID,1008.62,VALID,0,VALID,95.3905,VALID,0,VALID,22.3108,VALID,237,VALID,0.441406,
2009-01-30, 03:55:04,VALID,1008.57,VALID,0,VALID,95.3829,VALID,0,VALID,22.3303,VALID,229,VALID,0.0582031,
2009-01-30, 03:56:04,VALID,1008.61,VALID,0,VALID,95.3829,VALID,0,VALID,22.3108,VALID,229,VALID,0.283984,
2009-01-30, 03:57:04,VALID,1008.61,VALID,0,VALID,95.3677,VALID,0,VALID,22.3108,VALID,229,VALID,0,